Wetbulb
70.00 73.39 74.96 74.13 74.51 75.88 74.66 73.62 74.58 74.34 74.73 74.87 75.52 74.93 74.90 73.40 72.94 73.22 73.50 76.87 76.00 75.79 75.16 74.79 74.76 74.64 74.48 74.14 74.49 74.62 74.55 74.11 74.70 74.19 74.18 74.72 75.09 75.68 75.66 75.45 75.82 75.51 75.42
73.16 74.28 74.74 74.89 73.94 75.61 73.57 74.47 72.90 72.45 74.67 73.54 74.40 74.73 74.10 72.91 71.30 71.75 72.69 73.65 75.84 75.56 75.45 74.33 74.06 74.26 74.19 73.71 73.59 73.43 73.32 72.80 72.23 72.63 74.12 74.38 75.01 75.06 74.99 75.15 75.26 75.05 75.06
75.20 75.21 75.37 75.23 74.41 76.27 76.01 76.45 73.30 73.62 71.72 71.79 70.50 73.12 72.83 71.37 70.86 71.49 71.86 71.59 73.34 75.56 75.25 74.23 73.07 72.61 72.52 73.10 72.92 72.84 72.58 72.29 72.04 72.10 71.54 71.13 72.13 72.92 73.97 74.81 75.15 74.88 74.82
75.32 75.02 75.12 75.37 76.88 74.56 73.76 73.34 72.97 71.68 70.63 69.22 68.00 68.05 70.75 72.10 71.26 71.04 71.17 70.99 71.15 70.04 73.85 73.87 72.51 70.54 70.62 70.55 70.11 69.59 69.36 69.46 69.86 70.47 71.29 71.68 71.81 72.33 73.00 73.62 74.59 74.02 74.42
75.53 72.58 73.79 73.99 76.05 73.45 72.89 73.71 73.61 72.83 68.69 68.22 68.80 68.24 69.39 71.27 71.81 72.06 69.82 69.29 68.40 66.68 68.45 73.72 70.92 69.74 70.40 69.96 69.25 69.01 68.37 68.38 68.00 67.30 68.48 69.34 70.34 71.02 71.81 72.60 73.27 72.23 72.86
74.40 70.79 73.82 71.80 75.40 75.13 75.34 74.47 72.97 73.77 69.29 68.19 70.36 70.54 69.29 68.45 72.06 70.70 69.49 69.73 67.30 67.36 68.20 69.33 68.81 68.79 70.15 70.09 69.50 68.15 67.83 67.73 67.55 66.96 66.37 66.42 67.25 68.72 69.80 72.08 72.85 72.66 73.02
76.23 74.68 72.90 69.33 67.48 74.84 74.74 74.62 74.16 72.01 69.50 68.72 65.89 65.80 68.06 67.69 68.59 70.84 70.37 69.98 68.99 68.39 68.54 69.35 68.68 68.79 68.38 69.64 68.60 67.47 67.80 67.57 67.75 66.57 65.95 65.72 66.24 65.66 67.77 69.55 72.42 72.11 71.75
75.85 73.33 69.03 66.01 71.18 75.19 73.84 74.24 74.09 70.95 71.16 69.11 64.61 64.26 61.88 65.41 64.21 67.05 70.52 70.92 69.04 69.15 69.61 69.30 68.65 67.57 66.67 66.99 67.17 67.96 67.61 67.36 66.27 65.78 65.03 65.01 65.16 65.78 65.95 67.90 71.37 71.25 71.55
75.05 75.72 74.74 71.19 72.33 75.47 73.95 74.37 73.52 72.17 68.71 70.47 67.28 63.70 59.62 58.57 60.76 64.05 63.57 64.84 65.97 66.96 66.94 66.94 66.85 65.47 64.81 65.38 66.22 67.01 67.70 65.76 66.54 65.12 64.39 64.01 64.41 64.87 65.33 66.32 68.48 70.86 70.79
74.46 75.33 74.86 74.79 75.67 75.66 75.19 74.59 75.39 74.14 70.80 68.27 68.72 67.90 65.07 63.50 59.66 58.17 63.41 63.86 65.94 65.10 64.37 66.09 65.69 65.18 65.10 65.45 67.22 66.97 66.22 65.08 65.34 64.60 63.31 64.17 64.66 64.88 65.02 65.64 67.51 70.03 70.81
75.09 75.16 75.84 75.44 76.95 76.85 75.69 75.37 74.37 73.74 73.70 71.73 70.58 68.90 67.77 66.75 63.87 60.12 60.09 60.75 63.26 63.09 63.32 63.68 63.32 63.55 64.38 63.72 61.76 64.96 64.98 64.59 64.07 62.89 63.15 63.91 64.43 64.76 65.17 65.47 66.87 68.78 70.66
73.54 75.60 76.28 75.94 75.28 76.39 75.23 75.21 75.26 74.35 73.24 71.89 71.68 71.25 66.28 64.70 64.23 60.81 60.20 59.85 60.60 60.51 61.74 62.34 62.31 62.35 62.52 62.30 63.01 65.35 65.11 64.45 62.97 61.95 62.73 63.28 64.45 64.51 65.34 65.96 66.66 68.86 70.21
71.38 74.43 75.50 74.84 74.61 76.63 74.99 75.77 74.94 74.48 73.73 72.08 71.60 70.75 70.81 68.99 66.95 64.01 62.22 61.22 57.90 60.67 59.45 61.15 62.10 63.81 63.64 61.97 62.39 64.62 65.26 63.81 62.80 61.90 62.38 63.05 63.50 63.92 64.86 66.01 67.07 68.08 69.87
71.28 74.24 76.16 75.38 75.41 75.22 74.97 75.74 75.85 74.74 74.13 72.67 71.80 70.83 70.44 69.88 68.41 66.05 63.57 61.60 56.42 57.65 58.51 60.02 62.73 62.91 62.45 61.74 63.28 65.62 62.18 63.42 62.54 62.17 62.07 61.64 62.30 63.09 65.01 66.19 67.87 68.65 69.53
73.32 74.30 74.15 73.02 73.76 74.26 73.16 74.51 75.07 74.52 74.15 72.97 71.72 71.78 70.73 70.87 68.25 66.25 64.52 64.63 57.05 52.23 56.19 58.99 58.32 61.49 61.87 60.66 62.70 61.03 60.92 63.57 63.06 62.28 60.95 60.82 61.72 62.43 64.65 65.74 66.33 66.95 67.36
73.14 73.11 73.83 74.02 74.15 74.02 74.36 73.27 73.83 74.24 73.60 73.23 72.68 71.51 71.34 70.91 70.10 67.22 63.61 61.96 60.10 56.94 56.89 58.69 60.25 61.51 61.41 60.04 62.57 60.92 61.21 63.59 63.05 61.94 60.58 61.16 61.63 61.85 63.47 64.90 65.10 65.21 65.45
72.15 72.72 73.30 73.52 74.07 74.12 74.16 73.69 72.82 73.77 73.11 72.81 73.28 71.01 70.63 70.43 69.38 67.60 62.53 60.54 60.09 60.21 55.53 56.17 58.75 59.65 59.62 60.23 60.94 60.56 61.94 58.17 59.06 61.52 61.00 61.27 61.15 61.85 62.44 63.47 63.60 63.78 64.26
73.37 72.99 73.94 73.42 73.82 74.44 75.01 75.04 74.87 74.49 71.38 72.68 72.64 69.68 70.76 71.05 68.59 67.85 62.90 62.70 60.63 61.11 58.19 54.41 56.65 57.98 58.04 60.94 60.13 59.31 60.47 60.95 59.01 61.98 61.44 61.24 61.36 61.52 61.51 62.14 62.48 62.26 61.95
74.96 75.64 75.26 75.37 75.24 74.52 74.22 75.08 74.73 75.00 74.13 72.53 72.92 69.60 70.85 70.38 68.72 64.78 61.89 61.06 61.73 61.77 58.70 56.65 55.93 57.75 58.47 60.07 60.09 60.22 59.42 58.22 60.01 61.72 61.50 61.47 61.39 60.89 60.61 60.77 60.80 60.41 59.55
76.34 75.88 75.43 74.82 75.59 75.94 76.11 74.95 75.45 74.10 73.95 73.69 73.48 71.40 70.74 70.27 68.61 64.79 62.91 61.44 61.07 58.89 57.92 56.79 55.65 55.53 56.35 59.35 60.19 58.88 57.09 57.63 56.61 57.91 59.94 60.13 61.15 61.09 60.90 60.63 60.40 60.33 58.18
75.16 74.37 73.75 73.50 73.03 75.53 76.42 73.70 73.71 74.43 73.17 72.70 71.88 70.32 68.36 69.41 67.58 65.45 62.85 61.97 61.22 60.75 57.45 55.32 56.33 54.90 54.58 57.11 57.66 58.62 57.09 56.49 56.43 56.51 54.51 54.29 55.09 55.27 56.93 60.62 60.23 60.71 59.41
72.33 73.99 73.98 73.81 73.04 74.63 70.71 68.05 69.01 73.09 73.13 71.91 69.49 65.69 65.30 64.61 63.34 63.25 63.27 62.96 62.10 60.96 58.24 56.26 55.12 54.44 54.39 55.69 56.98 57.29 55.99 55.70 55.12 57.31 55.33 55.27 57.21 55.26 56.67 56.85 60.04 59.82 59.11
73.01 73.28 73.45 74.15 73.69 73.51 67.20 64.80 66.71 69.82 71.28 71.98 68.75 64.23 65.16 62.23 60.09 58.09 60.96 61.29 62.11 62.40 62.15 60.49 56.88 56.59 56.11 57.58 56.85 56.90 56.81 56.53 55.99 56.97 55.43 54.46 57.27 56.59 58.42 59.44 60.19 59.58 58.87
72.34 72.64 72.97 74.33 74.17 73.34 65.57 63.04 63.90 68.95 71.29 71.63 69.90 65.96 65.92 62.81 58.11 56.36 56.80 57.35 56.64 56.88 60.06 61.44 59.58 58.78 58.36 58.34 58.45 58.47 58.48 58.58 57.72 56.95 56.01 54.36 57.52 56.65 58.42 59.43 60.54 59.92 58.39
71.65 72.73 73.38 73.29 73.26 71.94 64.30 61.77 63.70 69.22 71.03 70.37 69.18 68.34 65.20 63.06 59.50 59.96 59.71 57.46 54.45 53.61 56.88 58.13 58.23 57.99 58.33 58.35 57.49 58.59 57.43 57.76 56.69 56.37 56.25 56.55 57.92 57.11 57.31 57.15 60.61 59.80 57.86
71.49 71.46 73.45 73.29 70.38 72.54 63.58 59.23 62.23 69.33 69.78 69.86 70.80 67.30 63.55 63.15 58.20 58.93 61.45 58.82 55.26 53.73 52.93 52.18 51.99 54.02 55.99 56.14 59.24 57.47 58.39 57.11 57.32 55.93 58.62 57.33 58.18 58.02 56.27 57.88 58.06 59.80 58.06
MSLP
1013.39 1015.06 1012.96 1014.00 1014.17 1013.63 1013.99 1013.64 1013.83 1013.74 1013.71 1013.56 1013.39 1013.56 1013.17 1013.60 1014.11 1014.36 1014.70 1014.98 1015.14 1015.02 1015.26 1015.28 1015.41 1015.51 1015.94 1016.51 1016.45 1016.58 1017.02 1017.25 1017.25 1017.39 1017.58 1017.68 1017.78 1018.39 1018.77 1019.24 1019.48 1019.95 1020.50
1013.47 1015.80 1013.68 1013.39 1013.72 1013.06 1014.05 1013.67 1013.49 1013.58 1013.57 1013.15 1013.01 1013.07 1012.90 1013.48 1014.05 1014.28 1014.55 1014.71 1015.11 1015.24 1015.27 1015.52 1015.81 1016.00 1016.26 1016.66 1016.66 1016.86 1017.18 1017.53 1017.63 1017.34 1017.36 1017.51 1017.63 1018.03 1018.48 1019.13 1019.32 1019.89 1020.35
1014.44 1013.62 1012.24 1012.64 1013.10 1012.93 1012.95 1012.91 1013.29 1013.17 1013.56 1013.26 1012.98 1012.87 1012.78 1013.33 1013.66 1013.84 1014.10 1014.47 1014.55 1015.02 1015.50 1016.01 1016.21 1016.19 1016.54 1016.78 1016.91 1016.93 1017.10 1017.28 1017.58 1017.66 1017.80 1017.80 1017.70 1017.83 1018.23 1018.82 1019.19 1019.61 1019.95
1012.27 1012.60 1013.25 1013.35 1012.95 1013.10 1013.32 1013.53 1013.64 1013.72 1013.66 1013.28 1013.08 1012.80 1012.95 1012.92 1013.34 1013.72 1014.19 1014.67 1015.04 1015.62 1015.76 1015.96 1016.44 1016.87 1016.99 1016.78 1017.09 1017.36 1017.59 1017.69 1017.98 1018.10 1017.85 1017.98 1017.96 1017.84 1018.22 1018.67 1018.89 1019.15 1019.49
1013.05 1013.22 1013.67 1013.68 1013.56 1013.58 1013.88 1013.86 1013.75 1013.82 1013.87 1013.31 1012.86 1012.65 1012.87 1012.94 1013.49 1013.80 1014.71 1014.68 1015.25 1015.61 1016.00 1015.99 1016.60 1016.96 1017.15 1017.20 1017.89 1018.24 1018.14 1017.81 1017.87 1018.51 1018.33 1018.44 1018.32 1018.24 1018.18 1018.53 1018.79 1019.39 1019.57
1013.42 1013.35 1013.82 1014.04 1013.78 1013.93 1014.21 1013.96 1014.04 1013.90 1013.89 1013.55 1013.13 1012.96 1012.93 1013.00 1013.28 1013.99 1014.64 1014.83 1015.09 1015.49 1015.81 1016.04 1016.43 1016.87 1017.12 1017.41 1018.07 1019.10 1019.11 1018.53 1018.56 1018.79 1018.69 1018.57 1018.47 1018.49 1018.44 1018.38 1018.69 1019.28 1019.71
1013.41 1013.71 1014.09 1014.35 1014.02 1014.25 1014.25 1014.06 1013.90 1014.09 1014.11 1013.75 1013.67 1013.50 1013.31 1013.26 1013.68 1014.13 1014.54 1015.04 1015.24 1015.26 1015.80 1015.88 1016.34 1016.73 1016.99 1017.62 1018.17 1018.55 1018.63 1018.22 1018.65 1018.86 1018.89 1018.53 1018.45 1018.47 1018.57 1018.36 1018.41 1019.03 1019.43
1013.10 1013.46 1013.84 1013.93 1013.94 1014.13 1014.03 1014.06 1013.94 1014.37 1014.44 1014.05 1014.19 1014.57 1014.50 1014.17 1014.33 1014.70 1014.85 1015.06 1015.36 1015.66 1015.76 1015.88 1016.05 1016.53 1016.95 1017.25 1017.72 1018.26 1018.49 1018.40 1018.16 1018.29 1018.83 1018.58 1018.76 1018.83 1018.68 1018.49 1018.37 1018.71 1019.21
1012.72 1013.02 1013.11 1013.54 1013.82 1013.86 1013.92 1014.04 1014.09 1014.48 1014.83 1014.38 1014.18 1014.55 1015.04 1015.34 1014.99 1014.78 1014.73 1014.90 1015.30 1015.50 1015.89 1016.12 1016.49 1017.04 1017.40 1017.61 1017.78 1017.95 1018.19 1018.40 1018.46 1018.63 1018.61 1018.79 1018.93 1019.05 1018.77 1018.59 1018.51 1018.74 1019.17
1012.73 1012.67 1012.81 1012.94 1013.42 1013.54 1013.78 1013.98 1014.17 1014.38 1014.56 1014.85 1014.60 1014.51 1014.66 1014.76 1015.18 1015.32 1015.07 1015.77 1015.82 1016.07 1016.36 1016.52 1016.77 1017.24 1017.41 1017.64 1017.85 1017.97 1018.25 1018.50 1018.64 1018.74 1018.79 1018.74 1018.86 1018.99 1018.77 1018.51 1018.67 1018.82 1019.09
1012.66 1012.47 1012.67 1012.87 1013.23 1013.37 1013.63 1013.94 1014.15 1014.30 1014.39 1014.55 1014.76 1014.90 1014.95 1014.93 1015.28 1015.76 1016.01 1016.57 1016.97 1017.10 1017.05 1017.12 1017.19 1017.57 1017.81 1018.00 1018.09 1018.12 1018.37 1018.54 1018.67 1018.92 1019.12 1018.98 1018.93 1018.93 1018.67 1018.65 1018.75 1018.91 1019.13
1012.98 1012.62 1012.49 1012.86 1012.95 1013.30 1013.43 1013.56 1013.74 1013.96 1014.06 1014.32 1014.65 1014.82 1014.94 1015.24 1015.38 1015.68 1016.23 1016.42 1016.82 1017.65 1017.60 1017.52 1017.69 1017.76 1017.81 1017.95 1018.25 1018.08 1018.22 1018.45 1018.60 1018.75 1018.90 1019.07 1018.94 1018.79 1018.72 1018.75 1018.72 1018.86 1018.95
1013.32 1012.85 1012.90 1013.00 1013.12 1013.19 1013.08 1013.06 1013.25 1013.46 1013.73 1014.17 1014.32 1014.78 1014.67 1015.20 1015.59 1015.60 1015.92 1016.28 1016.88 1017.55 1017.57 1017.42 1017.61 1017.33 1017.52 1017.95 1018.06 1018.12 1018.04 1018.39 1018.62 1018.81 1019.01 1019.19 1019.10 1018.98 1018.78 1018.73 1018.75 1018.78 1018.82
1013.59 1013.19 1013.08 1013.06 1013.12 1013.05 1012.94 1012.87 1012.94 1013.14 1013.39 1013.72 1014.12 1014.42 1014.62 1015.35 1015.06 1015.71 1015.50 1015.68 1016.16 1016.69 1017.39 1017.42 1017.40 1017.48 1017.49 1017.87 1017.96 1018.00 1018.09 1018.34 1018.52 1018.78 1019.09 1019.26 1019.25 1019.09 1018.79 1018.62 1018.61 1018.74 1018.84
1013.23 1013.19 1013.05 1013.01 1012.91 1012.80 1012.71 1012.68 1012.86 1012.94 1013.03 1013.27 1013.62 1013.99 1014.05 1014.35 1014.66 1015.04 1014.80 1014.90 1015.49 1016.31 1017.21 1017.39 1017.53 1017.56 1017.69 1017.75 1017.92 1018.12 1018.20 1018.28 1018.62 1018.83 1019.00 1019.23 1019.32 1019.29 1018.95 1018.83 1018.83 1018.91 1019.06
1013.08 1013.04 1013.04 1012.91 1012.82 1012.77 1012.67 1012.55 1012.74 1012.73 1012.86 1013.03 1013.09 1013.55 1013.66 1013.95 1014.23 1014.45 1014.40 1014.42 1014.78 1015.22 1016.66 1016.97 1017.19 1017.48 1017.60 1017.68 1017.66 1017.86 1018.18 1018.21 1018.54 1018.85 1018.96 1018.97 1019.27 1019.37 1019.07 1019.05 1019.23 1019.26 1019.33
1012.82 1012.92 1012.79 1012.74 1012.66 1012.63 1012.47 1012.28 1012.41 1012.43 1012.78 1012.81 1012.64 1012.93 1013.31 1013.42 1013.91 1014.18 1014.15 1014.17 1014.58 1014.82 1016.25 1017.04 1016.88 1017.48 1017.70 1017.70 1017.67 1017.70 1017.92 1018.21 1018.43 1018.83 1018.91 1018.96 1019.09 1019.17 1019.18 1019.11 1019.24 1019.51 1019.66
1012.37 1012.38 1012.35 1012.37 1012.45 1012.32 1012.18 1011.81 1011.88 1011.89 1012.24 1012.22 1012.16 1012.54 1012.76 1013.12 1013.46 1013.67 1014.07 1014.18 1014.57 1014.76 1015.68 1016.71 1016.91 1017.53 1017.59 1017.44 1017.33 1017.60 1017.63 1018.08 1018.56 1018.69 1018.86 1018.91 1019.04 1019.13 1019.16 1019.20 1019.37 1019.64 1019.95
1011.98 1011.95 1011.94 1011.92 1012.00 1012.04 1011.99 1011.51 1011.42 1011.30 1011.22 1011.45 1011.33 1011.94 1012.20 1012.43 1013.09 1013.60 1013.79 1014.13 1014.32 1014.80 1015.36 1016.03 1016.83 1017.38 1017.29 1017.03 1017.40 1017.66 1017.95 1018.10 1018.38 1018.42 1018.60 1018.71 1018.81 1018.89 1019.20 1019.39 1019.53 1019.82 1020.21
1011.49 1011.58 1011.60 1011.64 1011.47 1011.49 1011.28 1011.03 1010.72 1010.56 1010.46 1010.67 1010.87 1011.42 1011.66 1011.92 1012.64 1013.15 1013.40 1013.93 1014.38 1014.95 1015.51 1016.09 1016.33 1017.01 1017.14 1016.91 1017.30 1017.71 1018.27 1018.44 1018.49 1018.43 1018.44 1018.53 1018.63 1018.76 1019.02 1019.29 1019.55 1019.85 1020.15
1011.95 1011.87 1011.86 1011.78 1011.49 1011.06 1010.75 1010.57 1010.53 1010.15 1010.01 1010.34 1010.82 1011.01 1011.47 1011.78 1012.30 1012.70 1013.16 1013.75 1014.24 1014.87 1015.53 1015.97 1016.18 1016.74 1017.04 1016.92 1017.24 1017.55 1018.04 1018.30 1018.54 1018.55 1018.72 1018.72 1018.71 1018.84 1019.00 1019.02 1019.30 1019.54 1019.75
1012.04 1011.84 1011.55 1011.36 1011.25 1011.13 1010.41 1010.41 1010.40 1010.16 1009.86 1010.40 1010.86 1011.42 1011.92 1012.24 1012.47 1012.79 1013.11 1013.58 1013.98 1014.38 1015.10 1015.55 1015.86 1016.23 1016.59 1016.62 1016.79 1017.22 1017.71 1018.28 1018.38 1018.05 1018.51 1018.46 1018.39 1018.61 1018.67 1018.85 1018.93 1019.21 1019.49
1011.90 1011.69 1011.49 1011.12 1010.89 1010.64 1010.66 1010.34 1010.22 1010.23 1010.07 1010.11 1010.57 1011.27 1011.89 1012.65 1012.83 1013.01 1013.35 1013.74 1014.11 1014.33 1014.34 1014.58 1015.29 1015.72 1016.10 1016.26 1016.41 1017.04 1017.25 1017.55 1017.74 1018.01 1018.30 1018.26 1018.05 1018.11 1018.02 1018.28 1018.51 1018.86 1019.27
1012.05 1011.68 1011.12 1010.71 1010.67 1010.16 1010.71 1010.21 1010.18 1010.37 1010.19 1010.13 1010.24 1010.87 1011.69 1012.45 1012.82 1013.09 1013.59 1014.11 1014.51 1014.47 1014.53 1014.63 1014.87 1015.27 1015.48 1015.96 1016.20 1016.49 1016.58 1016.99 1017.40 1017.68 1017.80 1017.91 1017.83 1017.84 1017.79 1017.85 1018.07 1018.45 1019.00
1011.72 1011.23 1010.92 1010.33 1010.24 1010.24 1010.81 1010.66 1010.35 1010.63 1010.24 1010.05 1010.65 1011.04 1011.67 1012.16 1012.58 1013.05 1013.66 1014.45 1015.13 1014.96 1015.04 1015.03 1015.09 1015.36 1015.46 1015.64 1015.66 1016.10 1016.44 1016.75 1016.99 1017.12 1017.49 1017.67 1017.53 1017.62 1017.75 1017.68 1017.73 1018.24 1018.83
1011.67 1011.29 1010.82 1010.31 1009.88 1010.08 1010.29 1010.71 1010.67 1010.84 1010.74 1010.59 1010.79 1011.01 1011.29 1011.93 1012.48 1013.06 1013.71 1014.40 1015.13 1015.27 1015.21 1015.60 1015.61 1015.53 1015.46 1015.59 1015.43 1015.81 1016.10 1015.87 1016.15 1016.71 1016.59 1016.84 1016.93 1017.11 1017.49 1017.84 1017.81 1018.20 1018.85
Wind_Speed
6 8 9 3 6 3 3 5 6 6 8 9 11 7 8 9 9 5 4 14 13 10 9 10 8 8 8 5 7 6 7 9 10 11 13 15 14 14 14 13 14 14 16
2 2 11 6 5 2 4 7 6 4 5 6 6 9 8 10 9 8 6 7 10 7 9 8 6 8 8 7 9 8 7 4 3 6 10 11 13 14 14 15 15 15 18
13 9 3 5 2 2 6 3 4 5 5 4 3 4 4 12 10 10 7 5 7 11 10 8 7 9 9 9 8 9 9 8 6 6 3 4 7 14 15 15 16 18 20
7 6 7 5 5 5 4 3 3 2 1 3 3 2 4 8 10 9 6 4 2 3 7 11 10 6 8 10 7 7 6 6 5 5 7 7 7 7 16 17 18 21 19
5 6 5 4 5 3 3 3 3 2 2 4 4 4 5 5 9 8 6 6 5 4 2 8 12 5 7 9 7 6 6 7 6 2 5 6 6 6 9 19 21 20 18
4 6 3 4 4 4 3 3 4 3 1 2 4 4 4 3 8 7 7 5 3 2 5 3 4 5 6 10 12 10 4 5 6 3 2 3 4 5 3 14 20 21 22
6 6 2 2 3 3 1 3 2 4 3 5 4 5 4 5 6 7 7 5 5 5 5 5 4 4 4 10 16 15 6 6 9 3 1 3 4 2 2 1 18 21 20
6 5 5 3 1 1 3 3 4 3 2 3 2 2 4 5 5 5 6 7 7 4 5 5 6 5 5 6 11 16 9 8 4 3 1 4 3 2 3 2 7 14 18
4 6 4 3 2 2 1 2 3 3 2 3 3 4 3 2 2 1 2 5 7 5 6 5 7 5 4 6 9 11 12 5 6 3 0 1 2 1 2 1 1 11 17
5 4 5 4 5 2 2 2 2 2 2 3 2 2 1 4 3 4 3 6 5 7 5 5 6 5 5 6 10 11 10 6 4 3 1 1 1 0 1 1 2 8 17
4 6 4 4 3 2 2 4 3 2 1 0 1 1 2 1 1 2 2 3 5 3 4 5 5 4 4 4 4 7 10 8 6 1 1 2 1 1 1 3 4 6 19
3 7 3 5 4 3 2 3 4 5 3 0 1 2 1 1 0 1 1 1 5 2 3 3 4 4 4 6 8 13 12 9 5 2 3 2 2 1 1 4 6 8 10
4 3 3 4 2 4 5 5 6 5 4 2 2 0 4 4 3 1 3 2 4 3 1 1 3 4 5 4 5 10 12 9 7 4 4 4 2 2 3 5 10 10 11
0 4 3 4 4 3 3 4 3 4 5 4 2 4 4 3 1 3 3 3 2 3 2 3 2 2 4 4 8 13 6 9 6 5 4 3 1 1 3 1 10 10 10
3 3 2 1 3 4 3 4 2 4 6 5 4 6 4 3 3 3 3 3 4 2 2 3 2 3 3 3 5 5 5 10 6 4 3 3 3 1 3 6 8 7 6
2 3 3 3 4 4 5 5 3 4 5 4 4 7 5 3 4 3 2 1 1 4 4 2 2 3 4 3 6 5 6 11 10 7 5 4 3 3 2 6 6 5 5
3 5 5 5 6 6 6 6 4 6 4 6 5 7 5 6 3 3 2 1 2 4 4 1 2 3 3 3 3 5 6 5 5 8 7 6 4 4 2 3 4 4 5
7 7 7 6 7 7 7 7 6 6 5 6 7 5 6 5 4 3 2 2 3 4 5 5 3 3 3 4 4 3 6 5 4 7 8 8 7 6 4 3 3 2 2
6 6 6 7 6 7 8 7 7 7 7 6 7 7 6 7 5 3 3 2 4 4 4 5 4 3 3 3 2 3 4 5 2 6 8 9 8 7 7 5 4 5 5
6 6 4 4 6 6 7 7 8 8 7 6 6 5 5 7 6 6 5 4 5 5 4 4 4 3 2 2 4 4 2 1 1 1 1 5 8 8 9 8 7 8 7
5 3 3 6 7 5 5 5 6 8 7 3 2 5 4 6 7 5 4 3 6 5 4 4 3 3 2 2 4 3 3 2 2 2 0 1 3 3 4 9 9 10 9
6 5 5 5 6 7 7 5 7 7 6 5 6 6 5 8 9 13 13 10 5 5 8 4 3 4 3 3 3 5 4 2 2 2 1 2 3 3 4 4 10 12 10
5 6 7 6 7 6 6 6 7 5 5 5 8 8 6 5 6 7 10 11 10 8 3 6 6 5 4 4 6 4 3 3 3 3 2 2 3 3 3 5 12 13 11
5 5 6 7 7 2 8 5 4 5 5 4 6 10 8 8 6 7 7 7 6 6 4 4 7 6 6 5 6 5 6 4 1 2 2 2 3 2 2 4 13 13 11
4 6 8 8 5 1 7 3 2 5 6 4 7 8 8 8 11 11 8 8 5 5 6 8 10 9 9 7 6 4 1 4 3 3 4 3 2 2 0 1 6 14 13
5 6 9 5 5 3 7 6 1 4 5 3 4 6 12 10 14 11 7 8 6 5 6 3 2 4 5 3 3 3 2 2 3 2 4 4 2 3 3 2 2 6 6
Wind_Direction
213 99 270 221 235 239 198 241 227 231 234 223 217 201 236 170 152 159 166 184 192 174 163 142 138 127 122 123 120 138 195 216 213 209 210 207 200 193 189 180 167 168 164
16 85 197 193 223 235 199 221 194 179 213 230 199 195 216 156 154 167 175 172 179 168 145 146 139 123 120 132 123 118 122 130 169 180 198 203 196 190 185 179 168 165 159
114 235 345 39 258 342 356 78 355 48 12 27 320 217 146 153 164 170 165 171 172 171 151 150 148 133 126 117 123 126 133 134 136 127 133 153 193 192 178 172 167 168 165
28 41 30 356 37 43 47 57 50 16 338 36 338 296 202 153 160 154 150 163 151 50 158 156 139 120 132 118 133 123 127 123 125 129 114 114 123 144 183 169 167 168 171
51 74 54 357 9 63 50 35 13 21 4 352 339 2 7 157 159 151 149 165 146 153 156 153 126 147 150 145 126 110 135 124 112 152 109 121 113 114 175 190 184 168 186
91 73 37 14 30 50 20 32 25 354 50 324 341 335 260 177 158 154 162 149 189 185 115 134 139 152 165 152 113 108 242 109 81 44 59 92 106 113 122 196 187 173 169
140 123 131 346 356 52 350 45 27 15 340 351 22 348 359 39 108 154 161 151 193 214 162 164 136 144 178 156 142 176 196 138 133 220 332 60 48 57 81 279 203 195 182
135 148 162 150 338 126 16 17 54 24 337 349 80 91 7 332 21 126 168 184 191 201 202 160 146 132 146 154 164 175 185 178 131 135 262 50 35 36 32 21 227 206 183
165 159 180 164 223 124 169 144 82 66 356 322 33 124 31 294 331 11 87 95 107 99 88 83 87 91 114 145 161 171 166 172 219 182 22 77 78 330 50 349 298 199 181
195 189 203 188 162 120 100 157 112 93 74 359 349 16 143 168 208 337 351 65 81 89 102 108 113 121 126 132 143 151 139 143 175 184 244 48 37 164 68 332 226 194 177
220 230 205 198 158 157 186 155 140 108 73 179 69 348 346 294 84 140 267 103 73 40 94 113 109 115 125 112 119 150 165 177 198 166 135 101 61 219 97 225 228 194 183
271 241 196 187 185 189 199 195 178 168 176 239 22 9 351 273 95 171 3 16 127 44 62 107 133 162 152 144 165 164 166 167 190 156 96 102 70 62 298 223 215 201 186
335 295 158 169 188 202 227 228 189 181 184 160 195 278 33 337 14 343 108 279 131 203 160 156 155 155 140 141 169 171 161 168 179 170 142 114 96 59 313 248 210 204 187
255 310 238 202 219 243 291 315 203 191 177 191 212 132 111 9 20 270 186 154 324 143 151 163 162 145 138 158 185 173 162 173 185 167 148 124 91 15 10 304 216 204 198
297 26 26 155 277 276 283 305 245 234 185 180 196 152 147 160 178 264 220 177 172 182 132 194 157 168 122 126 178 150 170 175 197 181 157 179 193 148 47 72 76 91 92
329 331 322 325 313 295 288 278 286 290 181 195 179 161 183 163 174 247 218 320 144 154 124 159 142 152 154 183 202 178 179 173 187 194 168 187 196 178 120 92 87 82 86
293 288 276 263 257 264 269 273 257 256 217 223 196 178 193 174 155 276 195 193 114 107 118 346 108 153 160 170 178 169 173 166 166 185 180 190 200 190 183 104 99 82 63
233 235 249 251 256 251 251 252 251 261 242 245 215 183 187 175 186 216 201 186 127 137 125 151 136 156 174 186 196 169 160 154 158 186 185 188 189 191 189 188 167 166 62
239 243 244 249 244 249 253 250 257 253 241 236 215 178 205 179 166 180 150 119 115 118 135 142 139 177 205 162 161 114 96 110 129 168 175 176 169 166 186 207 206 203 214
240 257 275 317 297 270 259 266 252 249 249 226 203 177 203 174 159 175 146 160 131 125 124 133 123 166 176 176 120 126 143 72 151 18 155 177 185 189 190 191 207 214 218
10 351 338 323 305 296 269 268 277 256 251 235 179 132 128 142 143 137 122 144 126 135 146 149 130 133 197 152 158 166 164 150 256 218 302 235 181 188 202 207 220 223 221
318 318 305 262 273 287 273 273 281 277 254 186 140 118 105 104 114 108 102 97 111 141 167 155 167 157 194 168 137 160 126 176 255 163 234 239 187 200 195 184 210 218 217
320 302 293 290 283 275 284 310 325 297 294 198 160 142 137 134 132 120 113 105 85 72 125 163 153 156 141 164 141 155 162 158 205 174 163 267 189 220 189 194 198 202 203
289 279 280 271 282 293 288 299 349 307 297 267 167 146 141 155 165 138 123 103 84 64 52 100 114 132 126 125 135 168 185 160 119 156 148 242 177 214 180 193 197 201 180
312 319 295 302 278 327 254 272 340 323 331 106 129 142 153 160 160 150 126 122 107 80 41 94 112 124 129 136 133 101 177 157 194 202 176 195 176 143 140 349 180 188 178
316 328 323 311 356 283 211 225 326 2 349 87 132 144 157 161 167 163 141 139 141 165 141 111 75 98 123 174 128 132 247 150 140 171 194 176 150 168 118 45 77 152 161